Time,TemperatureF,DewpointF,PressureIn,WindDirection,WindDirectionDegrees,WindSpeedMPH,WindSpeedGustMPH,Humidity,HourlyPrecipIn,Conditions,Clouds,dailyrainin,SoftwareType,DateUTC
2013-04-03 00:00:00,63.1,59.5,30.10,SSE,157,2.0,4.0,88,0.00,,---,0.00,VWS V14.01,2013-04-03 04:00:00,
2013-04-03 00:05:00,63.1,59.5,30.10,SSE,166,1.0,3.0,88,0.00,,---,0.00,VWS V14.01,2013-04-03 04:05:00,
2013-04-03 00:10:00,62.9,59.3,30.11,South,172,3.0,3.0,88,0.00,,---,0.00,VWS V14.01,2013-04-03 04:10:00,
2013-04-03 00:15:00,62.8,59.2,30.10,South,173,0.0,4.0,88,0.00,,---,0.00,VWS V14.01,2013-04-03 04:15:00,
2013-04-03 00:20:00,62.7,59.1,30.10,South,173,2.0,4.0,88,0.00,,---,0.00,VWS V14.01,2013-04-03 04:20:00,
2013-04-03 00:25:00,62.7,59.1,30.10,South,173,0.0,4.0,88,0.00,,---,0.00,VWS V14.01,2013-04-03 04:25:00,
2013-04-03 00:30:00,62.8,59.2,30.10,South,169,3.0,4.0,88,0.00,,---,0.00,VWS V14.01,2013-04-03 04:30:00,
2013-04-03 01:00:00,63.5,59.6,30.09,SSE,158,4.0,5.0,87,0.00,,---,0.00,VWS V14.01,2013-04-03 05:00:00,
2013-04-03 02:00:00,63.5,59.6,30.08,SSE,162,2.0,7.0,87,0.00,,---,0.00,VWS V14.01,2013-04-03 06:00:00,
2013-04-03 03:00:00,61.8,57.6,30.06,South,182,1.0,6.0,86,0.00,,---,0.00,VWS V14.01,2013-04-03 07:00:00,
2013-04-03 04:00:00,59.3,56.4,30.05,SSW,210,0.0,3.0,90,0.00,,---,0.00,VWS V14.01,2013-04-03 08:00:00,
2013-04-03 05:00:00,59.1,56.8,30.03,SSW,207,2.0,3.0,92,0.00,,---,0.00,VWS V14.01,2013-04-03 09:00:00,
2013-04-03 06:00:00,60.3,57.7,30.05,SSW,207,2.0,3.0,91,0.00,,---,0.00,VWS V14.01,2013-04-03 10:00:00,
2013-04-03 07:00:00,61.4,58.5,30.06,South,189,0.0,4.0,90,0.00,,---,0.00,VWS V14.01,2013-04-03 11:00:00,
2013-04-03 08:00:00,62.2,59.8,30.08,South,189,0.0,1.0,92,0.00,,---,0.00,VWS V14.01,2013-04-03 12:00:00,
2013-04-03 09:00:00,64.5,62.1,30.09,SSE,153,0.0,3.0,92,0.00,,---,0.00,VWS V14.01,2013-04-03 13:00:00,
2013-04-03 10:00:00,67.0,62.3,30.08,ENE,66,4.0,5.0,85,0.00,,---,0.00,VWS V14.01,2013-04-03 14:00:00,
2013-04-03 11:00:00,69.5,63.8,30.09,East,82,2.0,7.0,82,0.00,,---,0.00,VWS V14.01,2013-04-03 15:00:00,
2013-04-03 12:00:00,70.4,64.7,30.09,ENE,57,3.0,7.0,82,0.00,,---,0.00,VWS V14.01,2013-04-03 16:00:00,
2013-04-03 13:00:00,68.7,63.7,30.08,NE,41,5.0,9.0,84,0.00,,---,0.00,VWS V14.01,2013-04-03 17:00:00,
2013-04-03 14:00:00,67.8,63.5,30.07,North,9,7.0,12.0,86,0.00,,---,0.00,VWS V14.01,2013-04-03 18:00:00,
2013-04-03 15:00:00,67.4,63.7,30.06,NNE,16,9.0,12.0,88,0.00,,---,0.00,VWS V14.01,2013-04-03 19:00:00,
2013-04-03 16:00:00,66.3,63.3,30.05,NE,34,5.0,12.0,90,0.00,,---,0.00,VWS V14.01,2013-04-03 20:00:00,
2013-04-03 17:00:00,65.9,63.2,30.04,NNE,17,11.0,14.0,91,0.00,,---,0.00,VWS V14.01,2013-04-03 21:00:00,
2013-04-03 18:00:00,65.1,62.7,30.06,NE,46,9.0,15.0,92,0.02,,---,0.02,VWS V14.01,2013-04-03 22:00:00,
2013-04-03 19:00:00,64.1,62.0,30.09,NE,36,5.0,14.0,93,0.04,,---,0.04,VWS V14.01,2013-04-03 23:00:00,
2013-04-03 20:00:00,63.5,61.4,30.08,NNE,23,12.0,18.0,93,0.05,,---,0.07,VWS V14.01,2013-04-04 00:00:00,
2013-04-03 21:00:00,63.4,61.7,30.06,NNE,15,13.0,23.0,94,0.10,,---,0.14,VWS V14.01,2013-04-04 01:00:00,
2013-04-03 22:00:00,64.0,62.2,30.09,NE,49,7.0,21.0,94,0.09,,---,0.16,VWS V14.01,2013-04-04 02:00:00,
2013-04-03 23:00:00,64.4,62.6,30.07,East,93,7.0,15.0,94,0.02,,---,0.16,VWS V14.01,2013-04-04 03:00:00,